Find Starlink 37548

NORAD ID: 69027 Int'l Des: 2026-101 Owner: SPXS Country: US Constellation: starlink operational
LEOCIRCULARRETROGRADE

現在のビュー

3D地球を読み込み中...

About Starlink 37548

Starlink 37548 (NORAD 69027) is a starlink constellation satellite (v2 mini) launched May 6, 2026 by SPXS of US. It operates in LEO, CIRCULAR, RETROGRADE orbit with a mass of 575.00 kg.

次回通過

Passes for default location (London). Set your location on the main map for personalized predictions.

高度履歴

Loading altitude history...

軌道要素

1 69027U 26101C 26235.87159427 .00015237 00000-0 47333-3 0 9996
2 69027 97.2856 89.7301 0001711 86.2283 273.9155 15.33445202 16941
Epoch: Aug 23, 2026 • Age: 9 hours

現在のステータス

高度 481.4 km
遠地点 / 近地点 N/A
速度 7.62 km/s
衛星直下点 -39.73°S, 31.52°E
打ち上げ日 May 6, 2026
運用期間 0.3 years
タイプ internet

技術仕様

分類 Payload
質量 575.00 kg
乾燥質量 530.00 kg
総質量 575.00 kg
長さ 0.30 m
直径 4.10 m
スパン 29.00 m
形状 Box + pan
製造者 SPXS
バスタイプ Starlink V2MO
フェーズステータス In Orbit
所有者/国 SPXS/US

Most Searched